Theta_e
305 306 306 306 305 305 305 304 304 303 304 305 303 306 308 312 303 300 310 314 313 314 315 319 322 324 325 323 327 328 330 329 330 331 329 330 331 334 335 339 342 343 344 346 347 348 349 350 350 351 352 353 355 355 355 356 354 355 357 358 357 356 354 352 352 352 351 351 347 345 344 344 343 343 342 342 342 342 339 335 336 337 337 337 336 336 338
303 304 305 305 304 304 304 304 304 305 304 304 305 306 308 309 311 310 314 316 313 313 315 318 322 327 325 327 328 326 325 325 330 329 331 330 331 332 334 338 339 342 344 346 347 348 349 349 350 350 351 352 353 352 353 354 355 355 358 358 357 355 353 353 353 352 350 349 346 344 343 342 339 338 339 340 340 340 336 334 335 338 337 338 337 337 337
301 303 304 304 303 303 302 304 305 305 305 305 305 306 307 310 309 311 311 316 315 318 323 323 328 330 323 322 320 321 327 329 328 329 329 331 331 332 336 339 339 341 343 345 347 347 348 348 349 350 351 352 352 351 352 353 354 356 358 358 357 355 353 353 353 351 350 348 346 343 343 343 342 340 337 336 335 336 335 334 336 338 338 336 335 336 336
300 303 303 303 303 303 302 302 304 304 303 302 303 304 309 307 307 310 309 308 309 316 320 319 322 323 324 322 325 327 328 327 330 329 330 331 333 333 335 337 338 340 341 343 344 345 346 348 349 350 351 351 350 350 352 353 353 355 355 356 355 355 354 353 352 351 349 348 346 343 343 341 341 339 338 338 336 335 334 334 336 336 335 336 336 336 336
301 305 304 303 302 301 298 300 303 305 304 306 306 306 310 308 309 308 306 306 315 318 323 319 320 318 322 324 324 327 329 331 329 331 332 332 333 334 336 337 338 338 338 341 343 344 345 346 347 349 351 349 349 351 352 354 354 355 355 355 355 354 353 352 351 351 349 347 345 344 343 342 340 338 337 337 335 331 329 331 335 335 334 335 335 335 336
302 305 302 302 299 292 295 306 308 307 305 305 304 304 306 309 312 311 314 315 318 322 321 317 320 321 324 326 331 331 331 331 331 331 334 334 333 334 334 337 337 339 340 341 343 346 347 348 347 350 350 349 351 353 354 356 356 355 355 355 355 353 352 351 350 349 349 347 344 343 343 341 339 337 336 334 333 332 331 332 333 335 335 335 336 336 335
301 303 302 298 293 296 309 315 314 309 308 308 306 307 308 309 312 314 315 317 321 323 320 322 323 324 331 325 325 323 323 328 330 331 330 333 333 334 336 337 337 340 342 343 344 345 345 345 348 349 348 349 351 352 353 353 355 355 354 354 353 352 351 350 349 348 348 346 344 342 341 339 337 337 335 332 332 334 333 332 334 336 336 337 337 337 337
304 301 300 292 295 308 312 311 313 313 310 309 308 306 311 315 311 314 312 316 318 324 323 322 325 325 324 324 326 326 326 329 329 328 329 330 331 333 335 338 340 342 340 341 341 344 346 347 347 346 347 348 347 350 353 353 354 354 353 352 352 351 349 348 347 347 346 345 343 341 339 338 335 334 333 331 330 332 332 333 335 337 338 338 338 337 338
299 302 300 299 309 306 308 308 311 312 310 306 305 302 306 315 316 315 315 317 321 321 321 321 321 324 322 324 324 323 324 325 327 330 332 331 334 337 339 338 341 346 346 346 345 349 347 346 346 346 348 347 348 350 350 351 352 352 351 350 350 349 347 347 346 345 344 343 342 340 338 336 334 332 332 331 331 332 331 332 333 335 337 337 339 338 338
304 301 298 300 299 296 305 311 315 316 314 316 316 314 311 318 319 318 317 319 320 322 320 319 322 324 319 315 320 325 326 325 326 328 332 333 335 337 338 346 345 347 347 348 348 345 346 348 351 351 349 349 350 349 350 351 350 350 349 348 349 348 347 346 345 344 344 343 340 339 338 335 333 332 333 334 334 335 333 332 332 334 337 338 339 340 339
303 302 297 297 296 300 313 312 314 316 317 316 316 309 305 319 319 319 319 318 321 322 321 322 322 318 313 315 323 328 329 327 327 330 331 333 335 338 339 341 343 345 348 348 346 348 348 346 346 349 350 350 349 348 349 349 348 347 347 348 347 346 346 345 345 344 343 342 340 338 337 336 333 331 331 333 335 337 335 335 335 338 338 338 339 340 339
303 301 298 297 303 303 311 313 315 316 318 315 312 300 302 319 319 320 320 319 320 321 323 322 321 318 313 317 322 329 333 333 335 337 337 337 337 339 342 344 346 346 346 346 346 346 344 343 345 347 348 347 348 347 347 346 346 346 346 347 347 347 346 344 344 343 342 341 339 338 337 335 336 334 334 334 334 336 336 337 337 337 338 338 338 339 339
303 300 301 304 306 314 314 313 315 316 317 313 304 297 311 319 321 320 319 319 320 322 321 320 319 321 328 331 333 336 336 335 337 339 341 341 342 341 341 341 343 343 344 344 343 343 342 343 344 345 346 345 344 344 344 345 345 346 347 347 346 345 345 343 342 341 341 340 338 338 337 335 334 334 335 335 336 336 335 336 337 338 339 340 339 340 340
301 303 299 300 306 311 312 315 315 318 310 302 303 315 316 319 318 319 319 318 319 321 325 325 328 332 333 334 336 337 338 338 339 339 339 339 339 340 341 341 341 340 340 340 341 340 341 341 342 343 345 344 342 343 343 343 345 345 345 345 345 344 343 342 341 340 339 340 339 337 335 334 334 334 336 338 337 336 336 337 337 338 340 341 341 340 342
305 303 300 297 293 311 315 313 316 318 309 314 315 318 320 320 322 322 324 324 326 329 329 332 333 332 333 334 336 337 339 340 340 340 340 340 339 339 339 339 340 340 340 340 339 338 337 339 341 343 344 342 342 342 343 344 344 344 344 344 343 343 342 341 340 340 340 339 337 335 333 333 334 335 338 337 338 338 338 337 337 339 340 340 339 339 338
304 302 299 297 309 312 315 313 309 316 318 319 321 322 320 325 326 326 327 329 331 332 332 331 332 333 333 334 336 336 337 338 340 341 343 343 341 339 337 337 339 340 338 336 334 335 336 339 341 342 344 342 342 342 343 343 343 343 343 343 342 342 341 341 340 339 339 338 337 336 336 335 336 337 337 337 337 338 339 339 339 339 339 339 336 335 335
307 305 311 313 315 315 316 315 315 320 324 326 326 326 325 325 325 329 327 327 329 330 331 331 331 330 332 333 334 335 335 336 336 335 336 338 339 339 338 337 339 339 338 337 336 336 337 339 341 342 344 344 343 343 342 341 342 341 342 341 340 340 340 340 340 339 339 338 337 337 337 337 337 336 335 336 336 339 340 339 339 339 338 338 337 337 336
315 313 314 316 316 316 314 316 315 315 317 319 321 321 319 320 322 325 325 326 327 330 332 328 329 330 331 331 332 334 336 337 340 340 339 339 340 340 340 338 338 338 338 338 337 336 337 339 340 341 343 345 345 344 341 341 342 342 341 340 339 340 340 340 340 339 337 337 337 338 339 338 338 338 336 335 335 337 337 337 337 337 337 337 336 335 334
306 300 316 312 312 315 314 313 315 316 316 316 318 319 320 320 320 320 322 322 323 325 327 328 328 328 330 330 332 335 335 335 337 339 342 342 342 342 340 340 340 339 338 337 337 337 336 337 339 339 341 342 345 342 340 341 340 341 340 340 339 338 338 339 340 339 338 337 336 337 338 338 338 338 338 335 335 334 335 335 336 336 336 334 331 330 329
309 307 312 315 315 315 317 315 314 314 316 317 318 319 321 321 322 322 324 325 324 325 324 328 327 327 330 331 332 331 333 335 336 337 338 340 341 339 341 341 341 340 340 340 338 338 337 337 338 339 339 340 341 340 339 338 339 340 339 339 339 338 337 338 338 339 339 337 337 336 337 337 337 337 336 335 335 335 335 336 336 335 334 332 331 331 331
309 312 313 313 314 315 317 316 316 316 317 317 317 318 318 320 320 320 320 321 322 324 325 328 328 328 329 331 333 331 334 336 336 336 337 338 339 340 340 340 341 342 340 339 339 338 337 337 337 338 339 338 338 339 338 338 340 339 339 338 338 338 338 337 337 338 337 338 337 338 338 331 322 316 318 329 335 335 334 337 337 335 333 332 332 333 333
305 307 308 312 306 305 314 316 316 316 316 317 317 316 316 317 317 317 316 317 320 321 323 324 324 323 324 326 330 329 333 335 336 336 335 335 336 337 338 339 339 339 340 340 338 337 337 337 337 338 338 338 338 337 337 338 339 339 339 338 338 338 338 337 336 336 337 337 337 335 332 327 321 313 302 296 301 318 328 312 306 300 302 331 331 334 332
305 311 313 313 312 313 313 316 315 315 317 317 316 316 315 315 316 317 316 315 316 317 318 321 320 320 320 321 323 323 326 331 334 335 335 334 335 335 337 337 338 339 339 338 338 337 337 337 338 338 338 338 339 337 338 339 339 340 339 337 335 335 335 334 334 336 335 335 333 331 330 328 327 323 318 311 295 293 297 300 298 295 297 295 299 310 328
309 310 311 312 313 309 311 315 316 316 315 315 312 312 314 317 317 317 317 318 316 316 316 317 319 319 319 320 321 321 323 325 327 329 332 334 335 336 337 337 337 336 336 337 336 337 337 337 338 338 337 337 338 338 339 339 340 340 338 337 335 334 335 335 336 337 335 335 333 331 330 329 327 325 324 321 315 297 293 295 296 293 293 296 300 305 309
308 310 312 313 312 312 314 314 315 317 319 319 314 313 314 314 315 317 318 317 320 317 317 316 318 320 319 320 321 322 322 323 325 327 329 331 331 333 333 336 337 337 337 337 338 338 337 337 338 338 338 338 339 338 339 339 338 338 338 337 335 335 336 335 334 336 334 334 333 331 329 327 326 325 324 322 320 315 307 295 294 294 293 294 294 296 297
314 312 312 313 313 313 314 313 312 313 314 314 313 314 316 318 316 316 317 317 317 317 316 316 316 318 320 320 321 321 322 321 324 325 325 326 327 329 330 332 335 338 337 337 337 337 337 338 338 338 337 337 338 338 337 338 338 338 338 338 338 336 334 334 335 334 333 333 331 330 329 328 327 326 326 325 324 320 316 315 313 304 296 294 293 294 293
317 317 315 310 310 310 312 312 311 315 315 316 315 315 314 316 317 315 315 316 316 316 316 316 318 319 319 319 320 320 320 321 322 322 322 322 323 326 330 333 336 338 337 336 337 337 336 337 338 338 337 337 338 337 336 336 336 337 337 336 336 333 332 333 334 335 332 332 330 329 327 328 327 326 327 327 326 324 322 321 320 319 317 312 301 295 303
315 315 315 311 308 309 310 312 314 314 314 314 316 315 315 316 316 314 313 314 316 316 316 317 317 317 317 317 318 317 317 318 318 319 319 319 322 325 330 333 335 337 337 336 336 336 336 337 337 337 337 337 337 336 334 334 334 334 334 334 333 334 334 333 333 334 333 333 332 330 329 328 329 328 327 326 325 325 324 325 321 319 318 317 310 299 293
313 313 313 313 312 313 314 314 313 312 312 312 314 316 316 315 313 313 312 313 314 315 315 316 318 318 317 317 317 317 317 316 317 317 319 322 323 324 328 331 334 335 336 336 335 336 336 337 338 337 337 337 335 333 333 332 332 331 330 330 331 331 333 336 336 335 335 335 333 331 327 328 328 328 328 328 326 325 324 322 320 321 318 314 311 309 308
311 312 311 310 311 311 309 308 309 311 310 311 311 312 314 315 313 314 314 313 314 313 315 317 318 317 318 316 317 316 316 316 318 319 320 319 322 326 328 331 333 335 336 335 335 334 335 336 337 337 336 335 333 333 330 331 331 330 330 329 330 331 332 335 337 337 336 334 331 324 327 328 330 329 328 326 325 324 322 321 320 318 316 315 313 314 314
309 309 309 309 309 310 309 308 308 308 310 310 312 312 312 313 313 313 313 315 315 314 316 316 317 317 317 317 318 319 318 318 320 320 320 322 324 326 328 329 326 325 329 333 336 334 334 335 336 335 336 334 332 331 331 331 331 331 330 332 332 327 325 327 330 335 334 332 329 329 329 328 328 328 326 325 323 322 321 320 319 318 318 318 317 317 316
307 308 308 308 309 308 308 308 309 309 310 311 311 310 312 313 313 313 314 314 314 315 316 317 316 316 317 318 319 320 319 320 321 322 322 324 325 326 327 328 329 329 332 334 335 335 334 334 334 334 334 334 333 333 332 333 332 331 331 331 334 333 329 324 330 330 333 333 332 331 329 328 327 327 325 324 323 322 322 322 321 319 318 318 318 319 318
307 306 306 307 308 308 308 309 310 309 310 309 310 311 312 314 314 314 314 315 314 316 316 317 318 319 319 320 320 319 319 320 320 321 321 323 324 325 326 327 328 329 330 332 334 334 334 333 333 333 333 333 333 333 333 331 331 330 332 332 333 333 330 326 328 332 333 332 330 330 329 328 327 327 326 324 323 324 324 322 322 320 319 319 319 319 317
309 309 308 308 309 309 308 307 309 310 310 310 311 312 312 313 314 315 315 315 314 314 316 317 319 320 320 320 320 320 320 320 319 320 321 322 324 325 326 327 327 328 328 330 331 332 333 334 333 332 333 333 335 332 331 331 333 333 333 331 332 332 330 330 330 331 330 329 329 329 330 329 329 328 326 324 324 324 323 323 321 320 319 318 319 318 310
310 310 310 309 310 310 311 310 310 310 310 310 311 313 314 314 314 315 316 316 315 316 318 318 318 319 319 318 318 318 317 317 318 318 319 321 322 324 324 324 326 326 327 327 328 329 331 332 333 333 334 333 332 330 331 331 333 334 333 332 332 331 331 331 330 329 328 329 330 330 329 328 326 326 325 324 324 324 323 323 322 320 318 317 318 317 314
311 310 310 311 311 312 312 312 312 312 312 312 313 314 314 315 315 315 315 315 317 318 318 318 318 317 317 317 316 316 316 316 317 318 319 319 321 322 322 323 323 323 324 325 326 328 329 331 330 331 332 331 330 330 331 331 331 332 333 332 331 331 331 330 330 329 328 328 328 328 327 325 325 325 325 325 324 323 322 321 321 320 319 319 318 316 315
313 313 313 313 314 314 314 314 314 314 314 314 315 315 315 315 315 317 317 317 317 317 318 317 316 315 315 316 316 317 317 317 318 319 319 319 320 321 322 322 322 322 323 323 326 328 330 331 330 330 331 331 330 331 332 331 333 333 333 332 332 331 328 327 327 325 323 325 325 325 324 324 324 324 324 324 323 323 322 321 320 319 319 319 320 316 314
313 314 314 314 314 315 315 315 315 316 315 315 316 317 317 316 317 318 318 317 316 318 317 316 314 315 316 318 317 317 317 318 319 320 320 320 320 320 321 322 322 323 324 324 327 329 332 331 330 331 332 333 333 333 332 331 331 331 332 329 329 328 327 325 323 323 323 325 325 326 325 323 322 322 321 322 321 320 320 320 320 319 320 319 319 317 316
314 315 315 316 316 316 316 317 317 317 315 315 316 316 317 318 319 319 318 317 318 318 317 316 317 317 317 316 316 317 317 319 320 319 320 320 322 321 320 320 321 322 324 326 328 330 329 330 330 330 330 330 332 332 331 329 328 330 330 329 328 327 325 324 323 322 323 324 323 323 322 322 322 321 320 320 320 319 319 319 319 319 318 319 318 318 317
314 314 315 315 315 315 316 315 316 316 316 316 316 315 316 318 317 317 317 317 318 318 317 316 317 316 316 316 316 317 318 319 320 320 320 320 321 321 322 321 322 324 325 324 328 330 330 328 330 330 330 331 331 331 330 327 327 328 328 327 327 325 324 323 323 322 323 322 321 320 320 320 320 319 319 319 319 319 319 319 319 318 318 318 318 318 317
315 315 315 316 315 315 315 315 315 316 317 316 317 318 318 317 317 316 315 315 317 317 317 317 317 317 317 317 317 317 319 320 319 319 320 320 319 318 318 317 321 325 326 326 327 328 328 327 329 328 328 329 329 329 328 326 326 326 326 326 325 323 322 323 322 322 321 321 320 319 319 318 318 318 318 318 318 318 318 318 317 317 317 317 317 317 317
315 316 316 316 316 316 317 316 317 316 317 317 318 318 318 317 317 315 316 316 317 317 317 318 319 318 317 317 318 318 319 320 320 321 321 319 318 319 318 319 324 326 326 327 327 327 327 327 327 327 329 330 329 328 327 325 326 325 325 324 323 322 321 321 321 320 321 320 320 319 319 319 318 318 317 318 318 318 317 317 317 317 317 317 317 317 317
316 316 316 316 317 318 317 317 316 316 316 317 317 318 319 319 318 317 317 317 317 317 318 319 318 318 317 317 317 318 319 320 320 321 321 321 321 321 320 321 325 328 325 326 326 326 326 326 327 327 326 327 328 328 325 325 325 324 324 323 323 322 321 320 320 320 320 320 319 319 319 319 318 317 317 317 316 317 316 317 316 316 316 316 317 316 317
316 316 317 317 317 318 318 318 317 317 316 316 318 320 320 320 319 318 317 317 317 318 318 318 318 318 318 317 317 317 318 318 319 320 321 320 321 322 324 324 325 325 323 325 325 325 325 325 325 324 324 326 327 325 324 324 323 323 322 322 322 321 321 320 320 320 319 319 319 318 318 316 314 313 312 310 310 310 311 310 311 312 314 316 317 316 316
316 316 317 317 318 318 317 317 317 316 316 318 319 319 320 320 321 320 319 319 319 319 319 318 319 319 319 319 318 318 319 319 319 320 319 318 318 319 323 323 324 325 324 322 325 323 322 323 322 323 323 323 322 321 322 321 321 320 321 320 321 320 320 320 318 318 317 317 315 313 312 311 310 310 310 309 309 308 309 309 311 311 312 311 312 314 316
315 316 317 317 317 317 317 318 319 319 318 319 319 319 320 320 321 322 321 320 320 320 320 320 320 321 321 321 322 323 324 325 325 323 324 322 320 321 324 324 324 324 323 322 323 322 323 319 319 322 322 320 320 318 318 318 318 317 317 317 317 316 315 315 315 314 313 312 310 310 309 309 309 309 309 309 309 309 309 309 309 311 311 312 312 314 315
315 316 317 318 318 318 318 318 318 319 319 318 317 317 319 320 321 322 322 321 321 321 322 322 322 323 323 322 322 322 321 321 321 323 323 324 324 324 323 324 324 324 325 326 323 323 321 321 320 322 321 319 317 317 316 316 316 315 314 314 313 313 312 312 312 312 310 309 310 309 310 309 309 309 309 309 309 308 308 309 309 309 310 310 311 311 312
315 315 316 317 320 320 319 318 319 318 316 317 317 319 320 320 321 321 321 322 322 323 323 324 323 323 323 323 323 324 324 322 316 317 322 322 323 324 324 326 325 323 325 324 321 319 318 320 322 321 320 320 316 316 316 315 314 314 313 313 314 312 312 311 311 311 309 309 309 310 309 309 309 309 308 309 309 308 308 308 308 308 308 309 309 310 311
315 315 316 318 319 320 319 319 318 319 319 319 319 320 320 320 322 321 320 322 322 321 320 320 321 322 322 323 322 322 323 325 322 318 322 323 323 322 324 324 324 324 324 323 321 321 319 316 318 319 319 319 315 315 315 314 314 313 312 312 312 311 311 310 310 310 309 309 309 310 310 308 308 309 308 307 307 308 308 308 308 307 308 307 307 308 309
317 317 318 319 319 320 319 319 318 320 321 321 321 321 320 320 319 318 320 318 319 320 319 318 317 322 321 320 320 322 323 324 324 325 325 325 324 325 324 324 325 324 323 323 322 320 320 319 318 319 320 320 317 315 315 314 313 313 312 312 312 312 311 310 308 308 311 310 309 308 309 308 309 309 308 307 307 307 307 306 307 306 306 306 306 307 307
317 316 316 317 317 319 320 320 320 321 321 321 321 320 320 318 317 318 318 317 318 316 314 314 317 317 318 318 320 320 322 323 323 323 324 324 326 323 323 324 325 324 324 322 322 321 321 321 321 320 320 321 319 317 316 314 312 312 313 312 312 311 311 310 309 309 309 309 309 309 309 309 310 311 309 308 308 307 308 307 306 306 307 306 306 307 308
315 315 315 316 318 320 321 321 321 321 320 320 319 318 317 317 317 315 315 316 316 314 313 314 312 315 317 317 317 317 319 320 320 321 322 322 323 322 322 322 323 323 324 323 322 323 321 320 320 320 320 320 320 318 317 314 312 311 312 313 314 312 312 312 311 310 311 310 309 309 309 309 310 310 309 309 308 308 307 307 307 307 306 306 306 307 308
Wind_Speed
18 18 18 13 11 17 15 17 16 17 18 17 20 16 12 12 12 13 8 10 11 10 11 11 12 12 13 14 16 14 5 2 3 6 10 12 12 11 14 14 13 13 14 13 14 14 13 13 13 13 12 11 11 11 12 12 13 14 12 12 13 13 12 12 13 13 10 9 9 8 11 13 12 8 8 10 11 10 7 6 6 8 7 6 8 7 6
16 16 17 11 14 12 15 17 17 17 19 20 21 19 16 15 11 12 10 14 16 13 12 11 12 13 12 9 2 2 6 11 9 11 11 12 13 14 15 15 15 13 13 13 13 13 12 14 14 13 12 12 13 13 13 12 12 13 11 12 12 12 13 13 11 10 10 9 10 11 12 13 13 14 11 10 9 9 13 11 9 6 7 6 6 5 5
14 16 15 12 14 15 17 15 14 16 17 18 20 20 18 16 15 10 7 10 11 9 7 9 4 2 1 2 8 11 9 7 10 12 13 13 14 14 12 10 12 12 12 12 12 13 13 14 15 13 11 11 10 12 12 13 13 12 11 11 11 11 13 12 11 10 11 12 11 13 14 12 10 10 15 13 12 12 11 10 8 6 7 6 6 7 8
8 8 10 13 15 17 19 20 19 14 12 14 10 10 4 9 9 9 8 7 7 7 8 7 6 4 4 9 12 10 8 11 11 13 12 12 12 13 12 11 11 11 12 13 13 14 15 14 13 12 11 11 11 12 11 12 13 12 12 13 13 12 11 10 11 12 12 12 12 13 13 14 13 10 10 9 12 14 10 9 7 7 7 8 9 8 7
6 3 6 10 12 9 12 17 18 17 13 11 11 12 11 15 14 11 10 10 7 10 5 7 7 10 11 9 8 9 9 8 11 13 13 13 12 12 12 13 13 14 15 15 15 14 12 12 13 13 11 11 11 12 12 12 11 11 12 12 11 11 11 11 12 11 11 12 12 12 13 13 12 8 8 8 6 11 12 10 6 7 8 8 9 8 7
6 4 3 4 4 10 10 10 17 18 18 17 14 12 12 12 11 7 9 9 11 9 5 10 10 11 11 11 7 2 3 7 9 11 9 9 11 11 12 13 13 13 10 9 10 11 11 11 11 11 13 13 12 11 10 9 11 10 11 11 11 11 10 11 11 10 10 11 11 12 12 11 10 12 11 11 8 5 8 8 8 8 10 11 9 8 8
5 2 3 4 9 10 6 1 1 13 20 19 21 18 18 17 15 10 5 7 7 9 12 13 13 11 1 3 4 4 4 5 6 7 3 3 8 10 11 10 10 9 9 9 9 8 10 12 11 11 10 9 8 8 9 10 10 10 10 10 10 9 10 9 9 10 10 11 11 11 13 14 13 15 13 11 11 9 9 10 10 11 11 11 9 9 9
2 2 3 4 4 4 6 3 2 3 0 5 10 15 8 6 13 14 14 13 13 10 7 6 1 3 4 3 3 2 3 4 7 9 8 10 10 11 11 12 11 12 13 13 13 12 10 9 9 10 10 9 9 9 9 9 9 9 9 9 9 8 8 9 10 10 12 12 14 11 12 11 11 10 11 12 11 10 11 11 10 9 9 9 9 9 9
5 1 3 8 6 8 4 3 4 4 6 10 14 12 13 15 12 13 13 14 8 4 5 5 4 5 5 3 1 2 1 4 5 5 7 10 10 6 6 9 11 10 10 10 9 8 8 8 9 8 8 9 9 8 9 8 8 8 9 9 8 8 8 9 10 11 12 14 13 12 12 12 13 12 12 11 11 11 12 12 11 11 10 10 9 9 9
2 4 6 5 6 9 6 3 1 3 5 7 8 4 6 4 8 11 12 12 10 7 5 7 8 8 6 6 5 1 0 1 3 2 5 8 8 9 9 5 7 7 7 7 7 7 8 6 4 5 7 8 8 8 8 7 8 8 8 8 7 8 9 9 11 11 12 12 12 12 12 14 13 11 10 9 10 11 12 12 12 12 10 9 9 9 9
3 4 4 4 7 6 4 4 7 7 6 7 5 4 10 6 11 11 12 12 9 10 10 10 10 9 9 9 5 3 2 2 4 7 8 8 9 9 8 9 10 9 8 9 9 9 8 7 5 6 7 8 7 7 6 6 6 7 7 6 7 8 8 9 10 11 11 12 12 12 12 12 12 13 12 11 10 9 11 11 11 9 9 8 8 7 8
2 3 4 7 3 4 4 8 10 12 9 2 4 9 8 9 9 9 11 11 10 10 9 12 12 12 11 8 5 5 6 6 6 7 9 10 11 11 11 11 10 11 11 12 10 9 8 7 7 8 8 7 7 6 5 5 5 5 5 6 6 7 8 9 10 10 10 12 11 12 11 10 9 10 10 9 10 9 10 11 10 9 8 7 8 7 7
1 2 5 3 5 1 6 11 16 14 6 4 8 10 2 4 2 6 7 8 8 7 9 10 7 2 4 6 9 9 11 13 11 10 10 10 11 13 13 12 12 11 9 9 10 9 7 6 6 6 7 7 7 6 5 5 5 4 5 6 7 8 8 9 10 11 10 11 12 10 9 8 7 8 8 9 9 10 10 10 10 8 8 6 7 7 6
6 2 5 7 6 3 9 15 15 8 3 8 10 2 3 6 2 2 4 6 7 7 5 4 6 7 9 10 7 7 9 14 13 13 12 14 15 14 14 12 12 11 10 10 10 9 7 7 6 6 7 8 7 6 5 5 5 5 6 7 7 8 8 9 10 10 10 10 11 9 8 8 8 8 7 7 8 10 9 9 9 8 6 5 6 7 6
2 2 4 5 6 3 15 19 9 3 5 2 1 2 6 4 6 8 9 8 6 7 9 9 10 11 12 11 10 9 7 9 13 13 13 14 14 14 13 11 8 11 10 10 9 9 7 7 5 5 7 8 7 6 4 5 5 6 6 7 8 8 9 9 10 10 11 13 13 8 9 10 9 8 6 7 8 9 9 9 8 6 6 6 6 7 8
2 1 2 2 4 9 12 10 5 8 8 7 4 0 6 6 6 9 10 10 10 10 10 13 12 12 13 10 9 12 12 11 9 10 10 10 9 10 10 10 8 11 11 9 9 8 7 6 6 5 5 7 6 6 6 6 6 6 7 7 8 8 9 9 10 10 11 12 13 10 10 9 9 9 10 10 10 10 9 8 6 6 5 6 7 8 7
5 5 1 5 5 7 8 8 7 7 8 4 4 7 7 8 8 6 10 11 10 10 13 14 13 14 12 12 11 13 11 11 11 12 11 12 12 11 11 11 10 10 9 9 9 9 7 7 5 5 5 6 7 7 6 6 7 7 7 8 8 8 8 9 9 10 11 11 12 11 11 11 10 10 12 11 10 9 7 7 7 5 5 5 6 7 7
4 6 4 5 4 7 10 9 9 9 8 8 4 7 12 10 10 10 11 11 13 12 10 15 13 13 12 14 13 13 12 11 11 10 10 10 10 10 10 11 10 9 8 9 10 9 7 5 5 5 5 5 6 5 6 6 6 6 7 8 8 8 8 9 9 10 11 12 12 12 12 11 11 9 11 12 11 9 7 7 6 5 5 5 6 6 5
7 3 4 2 5 6 9 9 9 9 9 7 6 9 9 8 10 13 13 12 12 12 13 14 13 13 12 13 12 11 10 11 11 11 10 8 7 8 10 8 9 8 7 8 8 8 7 5 4 4 4 3 3 6 6 6 7 7 7 7 8 8 8 8 8 9 10 10 11 12 13 11 10 10 10 10 10 9 9 7 5 5 5 5 4 4 5
2 3 12 9 6 9 5 5 7 8 9 10 9 9 10 11 12 12 11 13 14 13 14 13 13 13 12 12 10 10 9 9 9 9 9 8 8 8 6 5 6 7 7 7 7 7 6 5 4 4 4 4 4 6 6 6 7 7 7 7 7 8 9 8 8 9 9 12 12 10 10 10 10 9 9 9 9 9 7 5 5 5 5 6 6 6 7
0 5 3 9 16 7 6 6 7 7 8 8 10 12 14 14 15 15 16 14 12 13 12 12 13 13 12 10 10 11 9 9 9 8 8 8 7 7 6 5 5 5 5 6 5 4 4 4 4 4 4 4 6 7 6 6 7 7 7 8 7 8 8 8 8 8 9 10 10 9 6 4 6 6 4 1 1 2 2 1 4 5 6 6 6 6 6
4 6 8 11 14 7 4 2 2 7 8 9 10 13 16 15 13 13 16 15 15 14 13 13 13 13 9 10 10 12 11 10 9 9 9 8 8 8 6 4 5 5 5 4 4 3 3 4 4 5 5 5 5 6 6 6 7 8 7 7 7 7 7 8 8 9 8 8 7 5 5 4 4 5 10 9 6 4 1 6 9 9 6 2 2 3 5
1 4 7 4 7 3 7 10 4 3 8 9 11 11 13 13 12 11 14 15 15 15 13 12 14 11 10 8 9 12 10 10 9 9 8 7 7 6 4 3 3 4 3 2 2 4 4 5 5 5 5 4 4 5 5 6 8 7 7 6 6 6 7 7 8 8 8 7 6 5 5 5 4 4 4 6 13 12 9 7 6 7 4 5 7 8 3
5 5 7 9 5 6 5 5 7 3 6 10 12 11 11 12 10 11 11 10 11 10 11 11 10 10 9 8 11 11 10 10 10 10 10 9 8 6 4 4 2 2 2 3 4 5 4 5 5 5 5 4 5 5 6 7 7 7 7 7 6 6 7 6 6 7 7 6 7 7 5 5 5 4 4 4 5 11 12 9 9 7 6 6 3 3 4
2 5 11 12 13 12 10 11 8 6 9 11 9 9 9 11 11 10 10 9 9 11 11 11 9 8 9 10 11 11 9 9 9 8 8 7 7 6 5 3 2 2 4 4 4 4 5 5 5 5 5 5 5 5 6 6 7 7 8 7 7 6 6 6 6 6 5 6 6 6 6 6 5 5 5 4 5 5 6 8 9 10 10 9 9 9 10
3 7 12 13 12 10 7 12 13 11 9 9 9 7 8 8 8 10 9 8 8 8 9 9 10 10 10 10 9 8 8 10 9 8 9 9 9 9 9 7 5 1 2 3 4 5 5 6 6 5 5 5 5 5 5 5 5 5 6 5 3 3 5 6 6 5 6 6 5 5 5 5 5 6 6 6 6 7 8 6 6 8 10 11 10 11 11
6 7 10 15 15 14 12 11 6 8 9 9 8 7 5 4 8 9 7 9 10 10 10 10 10 8 9 8 8 8 8 7 8 9 8 9 10 8 7 6 5 3 1 2 3 4 4 4 5 5 4 4 5 4 4 4 3 3 4 3 2 3 4 4 3 4 5 5 5 5 6 6 6 6 6 6 6 8 7 8 7 7 6 5 8 10 7
9 10 10 10 7 7 7 8 7 7 8 8 7 7 5 2 4 6 8 8 8 9 9 8 8 8 9 8 8 8 8 9 8 7 7 8 7 6 6 7 7 5 3 1 2 2 4 4 4 5 4 4 5 5 5 4 3 3 3 2 2 1 2 3 3 3 4 5 5 6 6 6 6 5 6 7 7 6 6 6 7 7 6 5 5 5 9
9 10 11 10 8 7 8 7 10 12 11 10 9 7 8 8 8 7 8 8 8 9 9 10 9 9 8 8 8 7 7 7 7 8 6 5 6 7 7 7 6 5 3 2 2 2 4 4 5 5 5 5 6 6 6 6 5 5 5 4 2 2 4 4 5 5 5 5 5 5 6 6 6 6 6 6 6 6 6 6 6 5 6 7 6 5 5
7 7 7 8 10 10 10 8 5 5 5 5 6 6 5 5 8 8 8 10 10 10 9 9 9 9 9 8 8 7 7 7 6 5 5 5 5 5 6 7 6 3 2 1 3 3 5 5 6 5 6 6 6 7 7 7 5 4 2 2 4 4 3 3 4 4 4 5 6 9 7 6 6 6 6 6 5 5 5 5 6 6 6 6 6 6 7
6 7 7 7 8 7 5 3 2 0 2 4 3 2 4 6 6 6 7 7 7 8 8 7 7 7 7 7 6 5 5 5 5 5 5 5 4 4 4 5 6 5 5 5 3 4 5 6 5 5 6 6 7 7 7 7 5 4 2 3 3 3 2 2 4 4 4 5 7 7 6 6 6 6 6 6 5 5 5 5 5 5 6 6 6 6 6
3 5 4 3 3 5 3 3 2 2 2 2 4 6 5 6 7 6 5 6 6 6 5 6 6 5 5 4 5 4 5 4 5 5 4 4 3 3 3 4 4 5 6 6 5 4 5 5 5 7 6 7 7 8 7 6 4 3 4 3 0 2 1 6 4 5 4 4 4 5 5 5 5 5 5 5 5 5 5 5 6 6 6 6 6 6 6
5 5 4 4 4 3 4 3 3 4 4 5 3 2 3 4 5 5 5 4 4 3 4 4 4 3 4 3 4 4 4 5 5 5 4 5 5 5 4 4 4 4 5 5 6 5 5 5 4 6 7 7 7 6 5 5 5 5 4 3 3 4 4 4 4 6 5 5 4 4 5 4 5 5 5 5 5 4 4 5 5 6 5 5 5 6 7
2 2 2 1 1 2 4 3 1 3 3 2 2 3 4 4 4 4 3 3 3 4 4 5 5 5 4 4 4 5 5 5 5 5 6 7 6 6 5 4 4 4 4 3 3 3 3 4 4 6 7 7 6 6 6 6 6 5 5 4 5 5 5 5 5 5 5 5 5 5 4 5 5 5 5 5 5 4 4 4 4 4 3 4 4 5 6
4 3 1 0 0 1 1 3 3 3 3 4 4 4 3 3 3 4 4 3 3 3 4 5 5 5 5 5 6 6 6 6 6 7 7 7 7 7 6 6 5 4 3 2 1 2 3 4 5 6 7 6 7 7 7 8 7 6 6 6 5 5 5 5 5 5 5 5 4 4 4 5 5 5 5 5 4 4 4 3 3 3 3 4 4 5 6
3 3 3 2 1 2 2 3 3 3 3 3 3 4 4 4 5 5 5 5 3 4 5 5 5 5 5 5 6 7 7 7 7 7 8 8 8 7 6 5 4 4 3 3 2 1 2 3 5 7 5 6 6 8 8 7 7 6 6 6 6 6 6 5 5 5 4 5 4 4 5 6 6 5 5 4 4 4 4 4 4 4 4 4 5 5 6
2 3 2 2 3 4 5 4 4 4 4 4 4 4 4 4 5 3 3 4 5 5 5 5 6 6 7 7 7 7 7 7 7 7 7 7 7 6 5 4 3 2 1 2 1 1 2 3 7 10 6 6 7 8 8 9 5 5 5 5 5 5 6 5 4 4 4 4 5 6 7 6 5 5 4 3 4 4 3 3 4 4 4 5 5 6 6
4 4 4 3 3 5 5 4 4 4 5 5 5 4 4 4 4 4 4 5 6 6 6 6 6 6 6 6 6 7 7 6 6 6 6 6 6 5 4 3 2 1 1 2 2 3 4 7 11 6 4 4 3 4 7 10 9 6 5 5 6 5 5 5 5 5 4 4 5 5 4 4 4 4 4 3 3 3 3 3 4 4 5 5 5 5 6
6 4 5 5 5 6 6 6 5 6 6 6 5 5 5 5 5 5 5 6 6 6 7 7 7 6 7 7 7 7 7 6 6 6 5 5 5 4 4 4 4 5 4 1 3 3 6 6 6 6 6 6 6 6 8 9 9 6 5 5 5 5 5 5 5 5 5 5 5 5 5 4 4 4 3 3 3 3 4 3 3 4 4 4 5 6 6
5 6 6 6 6 6 6 6 6 6 6 5 6 6 5 6 6 6 6 6 6 7 7 7 7 7 8 8 7 7 7 8 7 6 6 4 3 3 2 3 5 4 1 1 2 2 5 7 5 4 4 5 5 6 6 7 6 5 5 5 5 5 5 5 5 5 5 5 6 5 5 5 4 4 3 3 3 3 3 4 4 4 4 4 5 5 6
6 5 5 6 6 6 6 6 6 5 6 6 6 5 5 5 5 6 6 6 6 7 7 6 7 7 6 6 6 6 6 6 6 7 6 6 6 5 5 5 5 4 3 2 3 4 4 4 3 5 6 5 6 6 6 7 5 4 4 5 5 5 5 5 5 6 6 6 6 5 5 5 4 4 4 3 3 3 3 3 3 4 4 4 5 5 6
6 5 5 6 6 6 6 5 5 6 6 6 5 5 5 5 6 6 5 5 6 6 6 7 8 7 6 5 5 5 6 7 6 6 6 6 6 5 5 5 5 3 6 5 4 4 4 4 5 5 5 5 5 8 9 6 5 5 6 6 6 6 6 6 6 6 5 5 5 5 5 4 4 4 3 3 3 3 3 3 3 4 4 4 5 5 6
5 5 6 6 5 5 5 5 5 5 5 5 5 5 4 4 5 5 5 5 5 6 6 7 7 7 7 7 7 7 6 6 6 6 6 6 5 5 5 3 3 3 5 4 4 3 3 4 3 3 3 4 6 10 9 6 7 6 6 6 6 6 6 6 6 5 5 5 5 5 4 4 3 3 2 2 2 2 3 4 5 6 6 6 6 6 6
3 3 3 4 4 3 3 3 4 4 5 4 3 2 3 3 3 4 5 5 5 6 7 7 7 7 7 7 7 6 6 5 5 4 4 5 5 5 3 3 3 3 4 3 4 3 4 3 3 4 6 8 10 8 5 5 5 4 4 4 5 5 6 6 5 5 5 5 5 5 4 4 4 3 2 2 1 0 1 3 4 5 6 7 7 7 7
2 2 2 2 2 2 3 4 4 4 3 2 1 3 4 4 3 2 2 2 3 4 4 4 4 4 5 5 5 5 4 3 3 3 5 5 5 5 3 1 0 1 3 2 2 2 2 2 4 4 8 8 9 7 4 4 4 4 4 4 4 4 5 5 5 5 5 5 5 5 5 4 4 3 2 2 1 0 1 1 2 3 4 5 5 6 6
3 2 2 1 2 3 2 2 2 2 2 1 2 3 4 4 4 3 2 2 2 2 3 3 3 3 3 3 3 4 4 3 2 1 2 3 4 4 3 2 1 1 2 1 1 1 1 1 2 1 7 9 7 5 4 4 3 4 3 4 4 4 5 5 5 5 5 5 5 5 4 4 3 2 2 1 1 1 0 1 2 2 2 3 4 5 6
3 2 2 2 1 2 1 1 1 1 2 5 6 6 5 4 4 3 3 2 3 4 3 3 3 3 2 3 3 4 5 5 4 3 3 3 2 1 2 2 2 2 3 1 1 1 1 4 4 2 7 8 6 4 4 4 4 4 4 4 4 5 4 4 4 5 5 5 5 4 4 3 3 3 3 2 2 2 2 2 2 2 2 3 4 5 6
3 3 2 2 2 1 1 0 1 3 4 3 3 3 4 4 3 3 3 2 3 3 3 2 3 3 3 3 2 1 1 2 5 4 4 5 4 3 2 1 0 1 2 2 2 1 2 3 3 5 7 7 4 3 3 3 3 3 4 4 5 5 4 4 5 5 5 4 5 4 4 4 4 3 3 3 3 3 3 3 4 4 4 4 5 5 5
2 2 2 2 1 2 2 3 3 2 2 2 3 3 4 4 3 1 3 3 4 4 4 4 3 3 3 2 2 2 1 1 2 3 4 4 4 3 2 1 2 4 3 1 2 2 3 2 4 6 9 7 4 4 4 3 4 4 5 5 5 5 5 5 5 4 5 5 5 4 3 3 3 4 4 4 4 4 4 4 4 4 4 4 5 5 5
3 3 2 2 3 3 3 2 2 2 2 2 3 3 3 3 4 4 4 3 3 4 3 3 4 2 2 2 1 1 0 1 2 3 3 3 3 2 1 1 1 2 3 2 2 1 5 4 3 4 7 5 4 4 4 4 4 5 5 5 5 5 5 5 5 5 5 5 5 4 4 4 4 4 5 5 5 5 5 5 5 2 4 3 5 5 5
4 3 2 2 1 1 1 1 2 3 3 3 3 3 2 3 3 3 3 3 3 4 5 5 5 4 4 4 3 3 2 2 2 3 3 2 2 3 3 2 2 3 3 3 3 3 3 4 5 5 6 5 4 4 4 4 5 5 5 5 6 6 5 5 6 6 6 5 5 5 5 5 5 5 5 5 5 5 5 5 5 5 5 4 4 4 4
3 2 3 2 1 1 1 1 1 1 2 2 2 2 2 2 3 4 3 3 3 3 3 4 6 5 4 4 4 4 4 4 4 3 3 3 3 3 2 4 4 4 4 4 4 4 4 4 4 5 6 6 5 5 5 5 5 5 5 6 6 6 6 6 6 6 6 6 6 6 6 6 6 5 5 5 6 6 6 5 5 5 5 5 4 3 3
Wind_Direction
221 225 225 199 197 218 210 213 209 202 194 190 205 211 211 159 209 229 184 182 208 204 206 208 217 214 219 224 227 225 216 96 173 192 198 199 194 184 184 187 182 172 176 178 180 182 188 187 187 190 190 192 193 195 200 200 200 204 201 193 195 195 193 196 201 199 190 180 178 147 145 172 180 146 161 176 172 164 159 170 171 185 195 203 199 195 191
226 227 226 199 201 216 223 215 211 203 198 198 203 207 206 193 216 227 209 186 206 204 207 212 219 219 220 234 279 14 223 217 193 196 198 198 193 190 192 188 181 179 177 173 177 178 179 184 187 188 189 189 191 194 198 197 198 204 191 192 194 194 196 202 198 187 181 174 169 159 164 185 180 164 164 188 168 159 170 176 175 180 195 207 212 205 192
234 234 229 213 208 215 226 225 216 208 204 203 204 210 204 196 216 210 212 197 220 221 220 220 216 31 345 238 225 225 215 201 195 201 201 196 194 196 192 175 174 174 172 171 171 175 181 186 188 188 187 185 184 196 197 198 198 198 190 193 194 193 199 198 190 183 183 185 173 174 179 177 164 172 173 165 176 174 167 162 165 168 185 190 199 209 198
242 231 231 222 212 216 224 229 223 210 202 207 205 227 176 189 201 212 209 217 231 236 219 240 252 249 237 234 231 221 211 204 195 200 205 197 193 191 182 170 166 164 172 171 175 182 185 185 182 182 179 180 183 197 191 195 199 194 193 197 196 197 197 188 189 189 189 181 175 177 176 177 177 167 180 180 181 167 148 145 164 174 196 203 212 205 204
245 216 217 239 216 215 235 231 226 215 202 207 199 210 191 201 191 200 205 223 215 232 193 195 220 222 230 248 251 237 220 200 201 205 202 196 190 182 170 170 173 176 178 180 180 180 180 178 182 184 171 173 188 191 193 194 187 188 190 195 193 194 192 189 193 192 184 180 175 177 174 177 173 165 164 168 192 164 166 178 168 192 207 209 214 207 206
281 329 72 127 162 222 229 220 217 210 211 204 214 213 208 217 211 211 205 213 217 213 155 198 214 209 217 224 247 291 274 207 212 220 215 195 181 176 176 179 179 176 168 166 173 174 172 174 174 166 177 187 192 188 185 177 183 188 189 195 193 193 186 189 190 185 180 177 173 177 174 171 170 177 172 178 194 157 147 172 196 211 213 213 208 207 209
283 70 167 206 233 241 233 138 215 214 216 210 211 216 212 211 207 215 230 235 224 211 202 203 213 217 170 20 310 262 224 212 207 206 207 181 175 174 170 169 167 154 154 150 153 158 170 176 178 178 186 189 174 173 177 181 186 184 192 193 193 188 183 181 177 177 178 175 174 173 171 174 171 181 176 179 169 160 177 194 201 209 215 211 209 212 214
226 246 182 244 249 335 339 359 109 81 280 242 223 235 244 236 214 205 217 215 220 219 212 220 160 160 142 99 69 4 295 240 205 187 191 180 182 187 181 165 156 157 164 165 170 178 175 167 171 179 181 174 170 170 172 178 180 186 188 193 189 179 173 172 176 177 181 183 193 172 173 166 163 163 174 179 172 179 194 206 212 217 219 221 217 216 218
263 305 265 279 329 284 193 182 164 174 183 176 185 209 225 204 199 198 212 224 217 203 219 197 169 153 155 185 136 67 273 269 266 226 184 173 173 155 146 158 160 164 166 166 164 142 147 166 169 177 159 159 158 153 166 176 173 181 185 190 186 172 172 172 178 176 181 190 185 173 178 172 172 171 173 175 180 185 198 208 213 215 221 218 218 221 222
267 302 308 298 267 264 219 174 22 335 327 315 323 287 230 149 192 198 206 220 210 202 177 172 159 159 175 213 211 111 86 226 210 172 127 128 135 146 153 127 119 117 108 106 112 142 150 147 135 131 135 147 147 152 161 162 171 177 184 188 174 169 175 173 177 174 177 176 172 179 179 181 176 169 173 183 186 189 200 209 215 217 216 218 220 223 223
264 260 283 284 288 279 38 28 350 341 323 318 283 204 236 173 187 189 198 209 202 189 175 159 154 167 197 211 185 119 121 133 151 136 125 122 115 114 117 129 128 118 110 114 116 112 119 113 109 116 122 130 137 143 148 155 168 175 182 175 169 172 172 168 173 171 177 175 178 183 184 179 172 171 181 190 194 191 203 213 219 219 218 223 226 226 229
234 289 272 279 245 302 6 341 339 330 331 339 204 214 220 168 178 186 188 200 193 189 173 160 171 179 198 196 156 140 128 112 99 109 114 110 108 101 96 90 94 98 104 102 99 102 102 97 103 109 117 125 123 125 131 147 166 175 172 167 163 162 161 163 169 171 173 173 180 186 182 173 159 170 181 189 196 200 211 220 220 221 222 227 235 238 239
305 221 288 272 259 183 9 344 325 324 301 214 206 211 154 24 184 169 190 191 172 168 156 164 167 14 358 51 104 129 127 109 93 79 82 91 101 104 100 97 97 93 86 89 95 99 102 109 110 117 124 115 107 107 124 144 165 167 155 147 151 154 157 163 169 171 172 179 180 182 176 157 152 181 189 195 198 210 214 216 219 224 227 233 244 247 237
268 333 297 285 298 68 346 338 325 308 216 189 213 42 289 285 46 114 165 139 137 157 140 119 97 106 94 95 106 116 119 112 111 108 104 95 87 88 95 101 104 103 102 101 101 93 95 106 112 120 119 110 114 123 134 161 163 147 147 150 153 158 169 169 167 171 173 174 181 177 156 154 174 195 197 201 207 211 212 214 216 226 230 232 242 247 234
41 110 294 301 280 74 2 340 324 124 262 357 10 305 26 27 80 92 83 90 88 102 102 95 102 108 105 104 100 95 87 97 105 109 109 109 113 118 117 110 119 119 107 100 97 103 104 104 110 114 112 109 114 127 154 159 150 151 149 150 157 166 175 178 179 178 183 182 186 176 160 172 185 196 192 200 205 205 205 210 214 212 222 228 236 245 248
180 122 225 281 357 326 342 350 320 346 319 319 292 34 80 39 77 91 92 74 81 84 92 97 92 93 96 90 94 94 88 85 86 82 81 83 86 84 79 84 88 90 95 98 101 99 102 107 107 107 117 116 134 151 156 151 149 145 147 155 166 172 176 179 178 182 182 183 188 179 168 175 189 192 200 203 204 200 198 200 199 210 213 228 239 246 241
171 178 189 324 332 314 352 343 335 328 332 349 40 77 76 78 51 57 79 82 72 80 93 86 87 79 69 75 66 68 64 67 71 72 63 65 66 65 69 72 68 67 85 100 101 95 94 104 115 130 148 145 155 157 147 152 151 149 150 156 170 175 179 179 180 180 181 184 188 183 183 186 192 195 204 200 199 194 188 198 205 208 208 210 221 234 232
151 82 90 283 304 344 2 356 2 0 356 358 9 72 83 60 66 59 74 70 71 66 67 84 70 71 72 66 61 61 59 64 67 74 76 77 83 90 93 88 81 91 94 92 93 96 99 114 131 154 168 169 157 140 142 151 151 153 155 159 173 180 178 181 182 180 182 188 192 191 189 195 198 196 200 201 200 194 196 204 208 208 211 213 220 227 222
137 144 184 127 15 348 10 358 352 22 20 5 12 42 55 66 65 70 64 67 60 57 54 59 67 61 59 70 65 59 52 46 47 54 57 59 62 77 86 103 118 115 113 107 108 116 122 139 156 164 170 162 126 130 148 156 159 160 164 164 169 175 177 177 180 185 186 188 192 197 201 203 205 206 203 202 205 205 207 203 186 203 213 207 205 212 219
285 168 162 129 63 15 357 6 352 16 14 8 20 52 55 55 51 49 50 58 57 55 56 49 57 53 44 49 50 55 53 49 46 47 48 46 54 51 61 90 103 103 103 110 121 128 136 155 164 165 163 161 148 154 157 164 158 161 167 170 170 171 175 175 181 188 190 190 194 199 203 205 205 204 203 208 208 208 198 178 190 199 212 209 213 217 225
33 33 6 134 110 97 320 343 51 37 24 6 19 36 56 56 56 55 50 50 61 62 63 62 62 57 43 39 47 53 43 38 37 38 39 43 42 50 50 43 43 64 86 93 107 122 129 150 169 171 174 172 169 164 163 161 160 171 171 169 169 166 174 181 182 186 195 193 197 201 185 100 53 38 23 16 251 165 60 225 225 217 208 215 219 223 222
179 182 200 156 123 155 213 267 42 79 60 42 47 55 55 52 55 59 64 55 51 55 56 65 70 63 48 42 49 52 47 44 39 39 40 40 41 41 41 38 44 56 64 90 120 143 155 173 182 186 180 176 169 170 161 166 172 175 168 165 167 168 175 184 185 188 195 191 185 156 142 124 119 88 66 64 28 354 93 28 5 2 351 265 293 232 216
62 14 210 338 5 81 135 131 26 4 91 82 65 59 68 61 52 57 67 68 57 51 44 49 65 64 55 37 55 60 52 45 47 47 46 47 50 58 53 65 69 72 84 120 149 182 189 187 189 187 182 171 167 171 171 180 184 176 166 163 172 179 179 188 188 186 186 178 140 136 135 143 153 146 146 85 59 45 31 26 19 20 17 326 323 334 297
306 340 65 28 76 101 88 71 95 23 38 75 71 64 67 67 57 57 60 57 77 75 64 49 49 61 57 46 58 58 47 42 45 48 50 52 46 42 41 40 62 115 138 172 198 207 199 199 195 188 182 174 173 178 185 189 187 179 175 172 179 182 182 176 156 179 182 167 150 145 145 151 151 158 145 131 97 48 37 40 52 58 67 72 80 105 90
343 35 78 81 86 82 74 78 65 58 61 63 63 57 58 79 80 72 72 60 44 66 71 66 49 48 61 56 56 57 49 44 42 39 43 47 46 47 48 59 119 175 185 189 192 194 193 200 197 189 187 177 175 184 185 186 188 184 184 187 191 179 168 155 159 161 160 154 153 150 151 150 152 156 154 146 128 115 56 54 69 70 63 72 91 101 100
36 78 82 80 77 72 86 88 64 50 57 71 74 56 52 65 83 81 73 83 83 73 76 75 73 57 54 53 52 56 60 51 43 38 41 36 30 27 18 9 1 333 188 187 186 191 192 195 196 192 198 187 179 179 174 172 180 184 183 186 188 165 159 156 153 157 165 160 158 153 146 157 162 167 173 171 161 148 142 140 108 78 65 57 64 75 70
38 51 94 84 67 58 39 58 59 20 34 45 55 59 48 49 75 86 82 69 69 67 70 68 68 70 63 55 55 52 54 49 47 43 40 36 32 20 1 351 348 334 254 203 193 191 197 197 200 199 196 185 167 158 151 140 144 150 156 142 129 95 114 139 158 153 152 151 156 155 160 170 174 181 177 175 162 165 167 157 149 144 142 98 44 34 84
21 52 60 82 85 69 51 38 42 44 41 32 26 30 29 40 72 84 80 74 68 68 66 60 59 57 57 42 40 34 31 35 36 34 34 28 19 9 360 351 351 356 346 320 254 217 211 215 215 211 191 168 143 141 138 126 114 104 102 111 118 147 163 185 193 182 165 165 162 166 171 172 171 173 170 171 174 171 157 142 139 142 130 109 108 82 81
22 45 61 69 77 90 82 46 35 42 26 1 360 354 12 39 44 42 51 52 53 55 48 42 46 47 45 40 33 29 23 20 18 14 14 11 10 6 360 356 355 359 352 318 272 229 225 224 218 208 196 159 149 140 125 108 85 61 32 346 300 245 220 207 198 191 180 161 161 163 159 158 160 164 167 167 164 159 149 141 142 139 125 128 126 123 125
36 17 29 55 57 51 59 73 56 30 46 336 349 16 4 3 37 40 35 33 36 41 32 27 33 34 31 33 28 17 10 4 360 350 356 5 12 7 1 348 335 348 327 274 243 229 230 226 220 204 204 168 157 137 130 111 101 114 153 242 268 267 255 222 195 171 161 159 147 143 157 160 162 162 159 155 153 142 132 132 138 136 136 151 158 155 161
25 34 42 54 70 69 60 28 11 322 277 264 250 90 53 59 62 46 39 35 37 38 27 24 23 21 21 18 7 359 354 348 340 338 335 344 355 9 1 358 354 350 337 322 297 235 227 227 220 209 185 170 163 150 141 136 153 177 221 250 245 210 214 172 187 188 166 155 153 162 153 155 156 155 148 146 140 132 134 142 152 155 161 162 172 171 160
50 60 47 47 86 133 175 215 222 198 131 9 46 59 47 58 61 55 44 35 34 22 14 14 12 6 357 348 341 335 332 328 321 321 318 313 326 1 9 347 326 312 309 306 295 255 232 219 209 204 168 169 161 166 155 135 122 194 236 239 266 6 179 175 169 144 149 146 141 138 138 145 147 143 135 132 135 139 153 159 168 168 169 174 178 168 153
134 130 144 161 148 168 141 177 144 96 72 76 49 30 39 44 58 59 48 30 19 10 349 352 343 336 328 322 318 318 315 310 299 293 307 323 334 346 356 344 322 314 313 315 306 289 256 232 200 160 175 180 177 156 142 154 168 191 199 182 157 187 185 170 133 130 122 120 117 126 140 142 136 137 130 132 138 148 159 160 159 163 169 177 177 171 169
201 137 87 322 301 151 135 121 101 115 109 106 99 75 69 57 57 61 50 24 13 2 351 340 334 332 329 330 328 326 332 327 333 334 333 329 324 328 335 331 322 320 319 319 299 270 248 238 192 172 181 176 153 151 160 163 168 173 169 165 164 162 150 138 138 122 122 127 127 132 128 128 129 129 134 139 145 149 143 148 149 151 162 186 178 174 154
50 60 29 226 226 182 147 134 117 97 105 110 103 86 78 70 57 47 41 32 17 347 339 336 340 340 345 349 350 352 346 337 327 320 318 318 319 323 329 330 330 328 326 342 311 261 236 208 181 180 172 162 152 156 156 163 161 155 155 155 147 135 124 122 128 131 132 129 134 134 121 117 123 130 131 131 133 123 136 140 146 160 187 193 184 172 152
168 164 173 177 184 143 107 89 84 84 85 81 73 68 62 46 31 26 22 13 11 8 3 352 351 352 6 12 3 356 348 341 333 327 324 321 320 319 319 325 333 330 320 324 335 296 235 201 172 159 158 152 150 149 152 153 153 153 144 140 137 130 128 128 125 124 125 128 117 105 107 114 118 120 123 120 123 130 148 161 181 186 207 207 190 173 156
103 113 102 85 69 66 66 57 52 55 64 61 57 57 49 34 21 13 359 14 23 16 4 352 357 5 8 2 354 352 349 343 337 333 332 329 326 323 327 327 334 342 320 324 20 295 200 185 158 147 149 153 152 143 146 145 139 131 129 130 125 119 119 112 101 94 92 98 106 108 114 113 104 104 114 127 136 152 169 185 192 204 206 206 189 176 161
72 74 68 59 59 65 62 54 46 52 61 71 68 55 29 8 5 5 17 29 26 16 6 7 7 357 358 0 7 7 358 0 349 350 348 345 345 339 345 347 349 348 65 56 143 176 166 146 149 142 124 114 112 119 138 130 118 121 117 121 113 108 114 116 114 106 110 107 108 112 121 129 137 146 147 151 160 171 186 200 192 192 192 184 184 179 176
80 74 63 58 54 51 55 55 50 47 40 38 36 32 20 2 358 5 24 28 23 10 8 9 2 10 17 14 14 15 10 355 355 1 359 7 10 3 13 4 357 348 349 1 168 124 109 117 132 124 122 122 126 113 108 108 105 109 115 112 118 128 126 116 112 117 119 119 120 117 117 114 120 127 136 138 146 163 176 192 180 185 194 188 187 190 185
69 62 56 57 56 49 53 52 49 44 43 36 35 33 18 10 15 18 26 29 20 10 7 4 2 11 11 15 15 14 11 16 12 0 359 339 339 357 19 24 7 344 315 216 185 138 107 91 89 93 105 115 117 121 110 101 95 101 110 120 121 120 110 113 124 129 128 127 119 120 122 125 126 129 133 143 153 172 173 177 195 200 204 203 213 207 203
52 50 50 53 55 53 51 49 49 41 41 42 43 38 25 18 14 24 25 14 1 4 2 3 356 6 9 8 13 16 24 31 23 22 17 29 30 25 31 30 14 351 21 119 189 160 139 136 122 122 132 134 133 124 115 106 98 101 121 130 132 125 127 136 139 136 137 135 136 136 131 134 134 144 147 159 169 181 192 201 204 205 213 212 212 212 214
41 46 52 54 51 49 46 44 45 50 49 45 38 29 23 17 21 24 14 1 360 0 359 1 7 5 358 359 6 22 36 37 38 39 41 37 30 24 48 41 13 39 70 89 107 99 101 127 136 137 134 131 126 111 110 114 131 151 150 144 141 136 138 136 137 132 132 132 135 134 139 146 147 149 154 169 175 198 207 222 230 230 229 224 222 218 218
23 34 42 47 48 46 47 48 49 50 52 45 36 35 26 26 30 27 19 13 2 359 359 359 357 2 5 5 6 14 20 17 25 32 46 50 43 35 39 46 18 43 60 67 84 107 100 115 112 99 100 113 123 131 137 147 152 150 146 141 138 137 137 136 134 138 144 147 148 150 152 161 166 172 178 204 232 241 254 251 252 249 240 237 233 228 224
358 17 32 39 43 36 35 51 57 55 53 44 13 1 32 40 41 33 29 14 2 359 355 352 353 359 2 1 2 7 4 3 6 11 34 67 66 60 50 48 16 51 62 93 109 106 110 104 91 104 125 124 127 132 138 140 144 140 138 139 147 151 149 149 153 159 160 159 162 162 160 159 163 154 159 152 168 245 275 285 288 282 276 264 255 247 241
346 347 7 23 24 24 33 33 31 33 27 345 344 26 27 22 29 36 27 10 350 342 348 346 345 348 351 353 349 344 331 317 318 342 17 32 47 50 37 27 88 48 79 84 112 123 111 102 100 139 137 132 138 134 137 132 135 138 144 149 156 161 160 162 162 164 161 162 158 156 156 163 160 159 162 145 149 272 282 299 298 296 285 280 272 260 249
346 342 348 13 62 48 24 355 339 321 307 302 52 52 27 11 5 2 350 339 325 325 312 311 305 314 319 325 333 327 334 358 23 10 11 5 10 5 6 342 23 10 115 158 199 276 302 93 145 223 138 139 132 131 130 136 143 146 156 160 160 158 163 161 160 160 161 162 160 163 165 168 169 174 169 187 156 278 29 309 291 290 301 302 293 281 270
334 334 0 9 73 108 60 317 264 279 345 14 16 3 2 3 353 350 352 330 302 298 301 303 311 322 328 332 339 344 355 358 26 58 28 43 18 327 316 302 300 248 213 224 275 259 122 159 177 175 154 147 150 155 157 158 159 162 167 170 166 167 169 168 171 170 171 172 172 175 173 183 187 179 173 191 204 224 241 247 271 292 293 285 280 271 263
344 340 349 336 331 60 116 354 2 36 33 16 334 332 340 342 352 345 328 323 318 309 302 311 326 334 341 339 334 306 318 334 350 30 25 9 16 22 17 46 44 206 229 192 194 100 67 37 117 175 167 157 167 181 173 176 174 180 180 175 183 181 183 182 184 184 185 182 183 195 198 199 199 204 207 220 227 231 241 254 269 281 293 297 297 294 286
351 335 318 301 307 29 27 5 6 355 12 347 331 342 342 329 317 1 343 340 342 342 341 340 332 335 339 335 323 344 350 231 284 327 340 342 344 349 359 359 220 224 247 232 170 153 140 111 158 180 169 179 187 189 195 195 193 194 193 195 195 195 196 195 196 194 201 203 209 218 230 241 237 237 240 244 247 246 241 250 261 273 292 309 303 291 282
339 338 356 13 8 15 10 342 333 345 338 333 344 335 332 328 338 358 350 345 344 326 322 332 334 329 322 333 327 342 316 268 261 267 276 291 306 299 219 262 285 259 275 301 291 193 139 156 158 183 198 204 200 199 204 210 208 208 207 202 204 205 205 207 198 202 215 218 225 230 234 242 249 244 251 261 259 257 257 260 268 232 163 240 284 291 288
350 346 349 347 343 347 320 281 302 321 328 333 326 328 328 336 333 321 325 339 339 353 349 340 331 341 349 340 327 322 312 294 266 248 270 275 252 278 274 260 214 218 215 231 237 241 219 210 210 201 213 224 216 211 212 211 217 215 216 219 212 219 212 206 217 215 217 223 228 232 239 245 247 245 249 256 256 254 257 256 259 267 265 289 296 297 295
324 312 303 295 301 305 291 338 344 321 316 314 321 326 339 334 325 331 336 5 357 351 345 332 328 335 340 338 334 332 334 322 309 298 277 276 265 266 218 232 250 224 222 230 231 227 236 230 214 215 225 229 228 224 207 198 216 227 219 220 223 224 222 219 215 220 217 212 218 228 230 235 240 242 246 250 251 255 255 259 265 269 272 277 284 288 291